Regional Weather Roundup
Issued by NWS

Home | Current Version | Previous Version | Graphics & Text | Print | Product List | Glossary On
Versions: 1 2 3 4 5 6 7 8 9 10 11 12 13 14 15 16 17 18 19 20 21 22 23 24 25 26 27 28 29 30 31 32 33 34 35 36 37 38 39 40 41 42 43 44 45 46 47 48 49 50
000
ASUS45 KBOU 220210
RWRCO

WEATHER ROUNDUP FOR COLORADO
NATIONAL WEATHER SERVICE DENVER/BOULDER CO
800 PM MDT MON MAY 21 2018

NOTE: "FAIR" INDICATES FEW OR NO CLOUDS BELOW 12000 FEET WITH NO
SIGNIFICANT WEATHER AND/OR OBSTRUCTIONS TO VISIBILITY.

COZ001>005-013-030-031-220300-
...NORTHWEST COLORADO...

CITY           SKY/WX    TMP DP  RH WIND       PRES   REMARKS
CRAIG          FAIR      62  45  53 SW3       29.94R
HAYDEN         FAIR      69  35  28 E5        29.99R
MEEKER         FAIR      66  39  37 NE3       29.95R
RANGELY        FAIR      71  26  18 NW3       29.87R
RABBIT EARS PA FAIR      50  23  34 NW5       30.25R
STEAMBOAT SPGS FAIR      67  29  24 NW3       30.00R
WALDEN         FAIR      57  30  35 NW6       30.10S
$$

COZ006>008-011-220300-
...WEST CENTRAL VALLEYS...

CITY           SKY/WX    TMP DP  RH WIND       PRES   REMARKS
GRAND JUNCTION FAIR      79  28  15 W8        29.82R
MONTROSE       FAIR      70  30  22 SE18G25   29.95R
EAGLE          FAIR      69  25  19 E6        29.98R
RIFLE          FAIR      77  19  11 CALM      29.88R
DELTA          FAIR      78  28  15 SE14G24   29.88R
NUCLA          FAIR      70  28  21 E7        29.97R
$$

COZ017>023-064>068-220300-
...SOUTHWEST COLORADO...

CITY           SKY/WX    TMP DP  RH WIND       PRES   REMARKS
DURANGO        FAIR      58  40  51 E14       30.09S
CORTEZ         MOCLDY    66  36  32 E15       29.98F
PAGOSA SPRINGS FAIR      54  37  52 E3        30.21R
TELLURIDE      CLOUDY    54  32  43 SE13      30.22R
WOLF CREEK PAS FAIR      34  32  93 SE3       30.44S
$$

COZ009-010-012-014-032>034-037-058>063-220300-
...CENTRAL COLORADO...

CITY           SKY/WX    TMP DP  RH WIND       PRES   REMARKS
ASPEN          FAIR      62  32  32 S24       30.08R
BUENA VISTA    FAIR      55  36  48 SE17      30.18R
COPPER MTN     FAIR      45  28  53 S6        30.36S
BERTHOUD PASS  FAIR      34  25  69 SE13G24   30.39R WCI  25
COTTONWOOD PAS FAIR      52  37  58 CALM      30.27R
GUNNISON       FAIR      58  36  43 E17       30.14R
GRANBY         FAIR      60  31  34 SE10      30.11R
KREMMLING      FAIR      68  25  19 S10       30.04R
LEADVILLE      FAIR      48  31  51 S15G25    30.24R
MONARCH PASS   CLOUDY    36  30  80 MISG      30.47S
SALIDA         FAIR      58  36  44 SE8G24    30.23R
SUNLIGHT       CLOUDY    48  19  32 SW6       30.28R
WILKERSON PASS FAIR      41  30  65 SW14G20   30.37S
$$

COZ069>075-220300-
...SAN LUIS VALLEY/SANGRE DE CRISTO MOUNTAINS...

CITY           SKY/WX    TMP DP  RH WIND       PRES   REMARKS
ALAMOSA        FAIR      47  46  97 E5        30.23F
DEL NORTE      CLOUDY    46  43  87 W6        30.24S
LA VETA PASS   FAIR      36  34  93 S29G39    30.42F
SAGUACHE       NOT AVBL
$$

COZ035-036-038>040-220300-
...NORTHERN COLORADO FRONT RANGE...

CITY           SKY/WX    TMP DP  RH WIND       PRES   REMARKS
DENVER INTL AP MOCLDY    66  41  40 S15       29.98R
AURORA         MOCLDY    65  40  39 SE8       30.01R
FRONT RANGE AP MOCLDY    66  41  39 SE9       30.00R
ERIE MUNI ARPT FAIR      72  35  26 S9        30.00R
BOULDER MUN AP FAIR      68  46  45 NW7       29.96S
CENTENNIAL     MOCLDY    67  38  34 S8        30.01S
BROOMFIELD     NOT AVBL
FORT COLLINS   FAIR      70  46  42 NE7       29.97R
LONGMONT       FAIR      70  49  47 NE10G17   29.97R
$$

COZ041-046-047-076>085-087-088-220300-
...PIKES PEAK/PALMER DIVIDE AND SOUTHERN FOOTHILLS...

CITY           SKY/WX    TMP DP  RH WIND       PRES   REMARKS
COLO. SPRINGS  MOCLDY    65  36  34 E10       30.06S
A. F. ACADEMY  MOCLDY    61  38  43 W5        30.08R
SCHRIEVER AFB  NOT AVBL
CHEYENNE MTN   MOCLDY    62  33  32 CALM      30.05R
ELLICOTT         N/A    N/A N/A N/A S17G26    30.05S
FALCON         FAIR      58  37  45 E6        30.11S
FORT CARSON    FAIR      67  35  31 NW5       30.02R
LIMON          FAIR      60  41  49 CALM      30.02R
MONUMENT HILL  CLOUDY    55  37  50 SE10      30.11R
CANON CITY     FAIR      66  43  42 S7G17     30.02R
WALSENBURG     FAIR      59  43  55 SW18G25   30.11F
TRINIDAD       MOCLDY    58  46  64 W23G30    30.12R
$$

COZ042>045-048>051-090-091-220300-
...NORTHEAST COLORADO...

CITY           SKY/WX    TMP DP  RH WIND       PRES   REMARKS
GREELEY ARPT   MOCLDY    68  50  52 SE9       29.98
AKRON          FAIR      68  56  65 SE5       29.96R
BURLINGTON     FAIR      72  40  31 SW15      29.94R
WRAY           FAIR      70  59  68 E7        29.91R
YUMA           FAIR      68  55  64 E8        29.92R
STERLING       FAIR      73  57  56 NE6       29.93R
HOLYOKE        FAIR      73  61  64 E9        29.93R
FORT MORGAN    FAIR      71  39  32 SE5       29.96R
$$

COZ086-089-092>099-220300-
...SOUTHEAST COLORADO...

CITY           SKY/WX    TMP DP  RH WIND       PRES   REMARKS
PUEBLO         FAIR      71  39  31 SW23G35   29.98R
LA JUNTA       FAIR      70  40  33 W5        29.97S
LAMAR          FAIR      69  52  54 E7        29.92R
SPRINGFIELD      N/A     71  52  50 S14       30.00R
$$



USA.gov is the U.S. government's official web portal to all federal, state and local government web resources and services.